Location: Carthage
(33.8834°N, 106.6595°W)
Time: 10:50:22
(UTC+00:00)

Cosmos 1674 Rocket - Pass Details

Date: 13 February 2026
Orbit: 596 x 622 km, 82.5° (Epoch: 11 March)

Event Time Altitude Azimuth Distance (km) Brightness Sun altitude
Rises 12:48:46 0° 343° (NNW) 2,900 6.8 -13.9°
Reaches altitude 10° 12:51:08 10° 334° (NNW) 1,987 5.8 -13.4°
Maximum altitude 12:55:08 35° 269° (W) 996 4.1 -12.6°
Drops below altitude 10° 12:59:06 10° 203° (SSW) 1,962 6.0 -11.8°
Sets 13:01:26 0° 195° (SSW) 2,857 6.9 -11.3°
